Weather History for Yuma MCAS, AZ

Change the Weather History Date:

Monday, April 21, 2014

  Actual Average Record
Temperature  
Mean Temperature 83 °F 74 °F  
Max Temperature 98 °F 88 °F 107 °F (1958)
Min Temperature 67 °F 61 °F 43 °F (1904)
Degree Days  
Heating Degree Days 0 0  
Month to date heating degree days 5 12  
Since 1 July heating degree days 370 685  
Cooling Degree Days 18 10  
Month to date cooling degree days 217 154  
Year to date cooling degree days 516 307  
Growing Degree Days 32 (Base 50)    
Moisture  
Dew Point 39 °F    
Average Humidity 26    
Maximum Humidity 42    
Minimum Humidity 9    
Precipitation  
Precipitation 0.00 in 0.01 in 0.28 in (1925)
Month to date precipitation 0.00 0.13  
Year to date precipitation 0.07 1.22  
Sea Level Pressure  
Sea Level Pressure 29.90 in    
Wind  
Wind Speed 5 mph (SW)    
Max Wind Speed 13 mph    
Max Gust Speed 18 mph    
Visibility 10 miles    
Events      
T = Trace of Precipitation, MM = Missing Value Source: NWS Daily Summary

Daily Weather History Graph

Daily Weather History Graph

Search for Another Location

Airport:

Trip Planner

Search our weather history database for the weather conditions in past years. The results will help you decide how hot, cold, wet, or windy it might be!

Date:

Astronomy

Apr. 21, 2014 Rise Set
Actual Time 6:01 AM MST 7:12 PM MST
Civil Twilight 5:36 AM MST 7:38 PM MST
Nautical Twilight 5:05 AM MST 8:08 PM MST
Astronomical Twilight 4:34 AM MST 8:40 PM MST
Moon 12:41 AM MST (4/21) 11:37 AM MST (4/21)
Length of Visible Light 14h 02m
Length of Day
13h 10m
Waning Gibbous, 56% of the Moon is Illuminated
Apr 21
Waning Gibbous
Apr 22
Last Quarter
Apr 28
New
May 6
First Quarter
May 14
Full

Hourly Weather History & Observations

Time (MST) Temp. Dew Point Humidity Pressure Visibility Wind Dir Wind Speed Gust Speed Precip Events Conditions
12:57 AM 73.0 °F 44.1 °F 35% 29.94 in 10.0 mi North 4.6 mph - N/A   Clear
1:57 AM 73.0 °F 43.0 °F 34% 29.94 in 10.0 mi Calm Calm - N/A   Clear
2:57 AM 73.0 °F 43.0 °F 34% 29.93 in 10.0 mi ENE 3.5 mph - N/A   Clear
3:57 AM 72.0 °F 41.0 °F 33% 29.93 in 10.0 mi ENE 4.6 mph - N/A   Clear
4:57 AM 71.1 °F 39.9 °F 32% 29.93 in 10.0 mi Calm Calm - N/A   Clear
5:57 AM 66.9 °F 42.1 °F 40% 29.94 in 10.0 mi Calm Calm - N/A   Clear
6:57 AM 71.1 °F 44.1 °F 38% 29.95 in 10.0 mi Calm Calm - N/A   Clear
7:57 AM 78.1 °F 39.9 °F 25% 29.97 in 10.0 mi NE 3.5 mph - N/A   Clear
8:57 AM 82.9 °F 37.0 °F 19% 29.97 in 10.0 mi Calm Calm - N/A   Clear
9:57 AM 86.0 °F 44.1 °F 23% 29.98 in 10.0 mi SW 6.9 mph - N/A   Clear
10:57 AM 89.1 °F 43.0 °F 20% 29.97 in 10.0 mi Variable 5.8 mph - N/A   Clear
11:57 AM 91.9 °F 39.0 °F 16% 29.96 in 10.0 mi Variable 5.8 mph - N/A   Clear
12:57 PM 95.0 °F 39.0 °F 14% 29.94 in 10.0 mi West 9.2 mph - N/A   Clear
1:57 PM 97.0 °F 37.9 °F 13% 29.91 in 10.0 mi WNW 11.5 mph - N/A   Clear
2:57 PM 98.1 °F 39.9 °F 13% 29.87 in 10.0 mi West 10.4 mph - N/A   Clear
3:57 PM 97.0 °F 39.0 °F 13% 29.84 in 10.0 mi West 9.2 mph - N/A   Clear
4:57 PM 98.1 °F 30.9 °F 9% 29.82 in 10.0 mi South 8.1 mph - N/A   Clear
5:57 PM 96.1 °F 33.1 °F 11% 29.81 in 10.0 mi South 11.5 mph - N/A   Clear
6:57 PM 93.0 °F 34.0 °F 12% 29.81 in 10.0 mi SSW 8.1 mph - N/A   Clear
7:57 PM 89.1 °F 33.1 °F 14% 29.82 in 10.0 mi SSW 6.9 mph - N/A   Clear
8:57 PM 87.1 °F 32.0 °F 14% 29.83 in 10.0 mi SSW 8.1 mph - N/A   Clear
9:57 PM 82.0 °F 37.9 °F 21% 29.83 in 10.0 mi SSW 4.6 mph - N/A   Clear
10:57 PM 78.1 °F 43.0 °F 29% 29.83 in 10.0 mi South 6.9 mph - N/A   Clear
11:57 PM 78.1 °F 43.0 °F 29% 29.82 in 10.0 mi Calm Calm - N/A   Clear